Regional Weather Roundup
Issued by NWS Goodland, KS

Home | Current Version | Previous Version | Graphics & Text | Print | Product List | Glossary On
Versions: 1 2 3 4 5 6 7 8 9 10 11 12 13 14 15 16 17 18 19 20 21 22 23 24 25 26 27 28 29 30 31 32 33 34 35 36 37 38 39 40 41 42 43 44 45 46 47 48 49 50
261
ASUS43 KGLD 260059
RWRGLD

GOODLAND FORECAST AREA HOURLY WEATHER ROUNDUP
NATIONAL WEATHER SERVICE GOODLAND KS
700 PM MDT WED APR 25 2018

...OFFICIAL OBSERVATIONS...

CITY           SKY/WX    TMP DP  RH WIND       PRES   REMARKS
GOODLAND KS    CLEAR     56  35  45 S5        30.07F
HILL CITY KS   CLEAR     57  37  47 NE5       30.08F
IMPERIAL NEB   PTCLDY    59  32  36 SE5       30.03F
MCCOOK NEB     PTCLDY    59  33  37 SE3       30.04F
AKRON CO       CLEAR     59  26  28 S7        30.04F
BURLINGTON CO  FAIR      57  34  41 S5        30.08F
LIMON CO       CLEAR     59  18  20 SE8       30.08F
$$

...UNOFFICIAL OBSERVATIONS...

CITY           SKY/WX    TMP DP  RH WIND       PRES   REMARKS
NORTON KS      CLEAR     57  34  41 E3        30.05
SHARON SPRINGS   N/A     60  32  35 CALM        N/A
KIT CARSON CO    N/A     62  30  30 CALM        N/A
YUMA CO        FAIR      57  14  18 SE6       30.04F
$$




USA.gov is the U.S. government's official web portal to all federal, state and local government web resources and services.